Regional Weather Roundup
Issued by NWS Goodland, KS

Home | Current Version | Previous Version | Text Only | Print | Product List | Glossary Off
Versions: 1 2 3 4 5 6 7 8 9 10 11 12 13 14 15 16 17 18 19 20 21 22 23 24 25 26 27 28 29 30 31 32 33 34 35 36 37 38 39 40 41 42 43 44 45 46 47 48 49 50

000
ASUS43 KGLD 210508
RWRGLD

GOODLAND FORECAST AREA HOURLY WEATHER ROUNDUP
NATIONAL WEATHER SERVICE GOODLAND KS
1000 PM MST MON FEB 20 2017

...OFFICIAL OBSERVATIONS...

CITY           SKY/WX    TMP DP  RH WIND       PRES   REMARKS
GOODLAND KS    CLOUDY    45  15  30 S10       30.01F
HILL CITY KS   CLEAR     36  27  69 W6        30.02R
IMPERIAL NEB   CLEAR     40  16  37 SW5       29.98F
MCCOOK NEB     CLEAR     35  23  61 W3        29.99S
AKRON CO       CLEAR     41  15  35 S10       30.00S
BURLINGTON CO  CLOUDY    39  13  34 S14       30.03F
LIMON CO       CLOUDY    21  11  65 CALM      30.06S
$$

...UNOFFICIAL OBSERVATIONS...

CITY           SKY/WX    TMP DP  RH WIND       PRES   REMARKS
LENORA KS        N/A     47  32  56 CALM        N/A
NORTON KS      CLEAR     36  21  55 SW9       29.99S
SHARON SPRINGS   N/A     33  15  48 SW5         N/A
TRENTON NEB      N/A     40  32  73 CALM        N/A
KIT CARSON CO    N/A     32  13  45 CALM        N/A
YUMA CO        FAIR      36  18  48 S10       30.00S
$$




USA.gov is the U.S. government's official web portal to all federal, state and local government web resources and services.